This demonstration page uses our WeatherBlox Daily Observations layout. Learn more.

38.89511, -77.03637

Hourly Observations for September 16, 2017

Temp ( °F °C ) Dew Point ( °F °C ) Humidity (%) Winds ( mph kmh ) Pressure ( in mb ) Visibility ( mi km ) Precip ( " mm )
12:52 am 00:52 Mostly Clear 71 21.7 67 19.4 87 87 Calm 30.09 1019 10 16.09344 0 0
1:52 am 01:52 Mostly Clear 71 21.7 66 18.9 84 84 Calm 30.09 1019 10 16.09344 0 0
2:52 am 02:52 Clear 70 21.1 67 19.4 90 90 Calm 30.09 1019 10 16.09344 0 0
3:52 am 03:52 Partly Cloudy 69 20.6 65 18.3 87 87 Calm 30.09 1019 10 16.09344 0 0
4:52 am 04:52 Mostly Clear 69 20.6 66 18.9 90 90 NNW 3 6 30.09 1019 10 16.09344 0 0
5:52 am 05:52 Mostly Clear 68 20 65 18.3 90 90 NW 7 11 30.09 1019 10 16.09344 0 0
6:52 am 06:52 Mostly Sunny 67 19.4 65 18.3 93 93 NNW 7 11 30.12 1020 10 16.09344 0 0
7:52 am 07:52 Mostly Sunny 70 21.1 66 18.9 87 87 N 6 9 30.15 1021 10 16.09344 0 0
8:52 am 08:52 Mostly Sunny 73 22.8 66 18.9 79 79 N 5 7 30.15 1021 10 16.09344 0 0
9:52 am 09:52 Mostly Sunny 77 25 68 20 74 74 N 3 6 30.15 1021 10 16.09344 0 0
10:52 am 10:52 Mostly Sunny 81 27.2 68 20 65 65 NE 3 6 30.15 1021 10 16.09344 0 0
11:52 am 11:52 Partly Cloudy 83 28.3 66 18.9 57 57 Calm 30.12 1020 10 16.09344 0 0
12:52 pm 12:52 Mostly Cloudy 86 30 66 18.9 51 51 Calm 30.12 1020 10 16.09344 0 0
1:52 pm 13:52 Mostly Cloudy 83 28.3 65 18.3 55 55 NNE 5 7 30.12 1020 10 16.09344 0 0
2:52 pm 14:52 Cloudy 80 26.7 69 20.6 69 69 ESE 8 13 30.09 1019 10 16.09344 0 0
3:15 pm 15:15 Mostly Cloudy 81 27.2 69 20.6 67 67 ESE 6 9 30.12 1020 10 16.09344 0 0
3:52 pm 15:52 Cloudy 81 27.2 68 20 65 65 SE 3 6 30.09 1019 10 16.09344 0 0
4:20 pm 16:20 Mostly Cloudy 81 27.2 68 20 65 65 SE 3 6 30.12 1020 10 16.09344 0 0
4:52 pm 16:52 Mostly Cloudy 81 27.2 69 20.6 67 67 SE 3 6 30.09 1019 10 16.09344 0 0
5:52 pm 17:52 Mostly Cloudy 81 27.2 68 20 65 65 SE 3 6 30.09 1019 10 16.09344 0 0
6:52 pm 18:52 Mostly Cloudy 79 26.1 69 20.6 72 72 SSE 5 7 30.09 1019 10 16.09344 0 0
7:52 pm 19:52 Mostly Cloudy 78 25.6 69 20.6 74 74 S 3 6 30.09 1019 10 16.09344 0 0
8:52 pm 20:52 Partly Cloudy 77 25 69 20.6 77 77 Calm 30.09 1019 10 16.09344 0 0
9:52 pm 21:52 Partly Cloudy 76 24.4 69 20.6 79 79 Calm 30.09 1019 10 16.09344 0 0
10:52 pm 22:52 Mostly Clear 75 23.9 68 20 79 79 Calm 30.09 1019 10 16.09344 0 0
11:52 pm 23:52 Mostly Clear 73 22.8 68 20 84 84 Calm 30.12 1020 10 16.09344 0 0

Powered by AerisWeather